Home > Weather > Sault Ste. Marie > Past weeks

Flag for Canada Weather for the Past 2 Weeks in Sault Ste. Marie, Ontario, Canada

Now
14 °F

Light snow. Mostly cloudy.


Feels Like: -1 °F
Forecast: -1 / 6 °F
Wind: 14 mph from North

Location: Sault Ste Marie

Current Time: Feb 9, 2016 at 9:41:31 PM

Latest Report: Feb 9, 2016 at 8:00 PM


Visibility: 10 mi

Pressure: 29.76 "Hg

Humidity: 73%

Dew point: 7 °F

Location of Sault Ste. MarieLocation

Historic Weather in Sault Ste. Marie — Graph

°F

Sault Ste. Marie Temperature Yesterday

Maximum temperature yesterday: 36 °F (at 12:00 PM)
Minimum temperature yesterday: 27 °F (at 10:00 PM)
Average temperature yesterday: 32 °F

High & Low Weather Summary for the Past Weeks

 TemperatureHumidityPressure
High39 °F (Jan 30, 11:00 PM)100% (Feb 7, 2:04 PM)30.30 "Hg (Feb 7, 2:04 PM)
Low-13 °F (Jan 29, 9:00 AM)42% (Jan 29, 12:00 PM)29.34 "Hg (Jan 28, 6:00 AM)
Average25 °F81%29.82 "Hg
* Reported Jan 25 8:00 PM — Feb 9 8:00 PM, Sault Ste. Marie, Weather by CustomWeather, © 2016

Note: Actual official high and low records may vary slightly from our data, if they occured in-between our weather recording intervals... More about our weather records

Advertising

Sault Ste. Marie Weather History for the Previous 24 Hours

 ConditionsComfort  
Time TempWeatherWind HumidityBarometerVisibility
8:00 PM
Tue, Feb 9
14 °FLight snow. Mostly cloudy.14 mph73%29.76 "Hg10 mi
7:00 PM18 °FSnow flurries. Mostly cloudy.14 mph73%29.74 "Hg8 mi
6:00 PM19 °FSnow flurries. Overcast.13 mph73%29.72 "Hg8 mi
5:00 PM21 °FSnow flurries. Mostly cloudy.13 mph74%29.69 "Hg5 mi
4:00 PM21 °FSnow flurries. Mostly cloudy.15 mph74%29.67 "Hg5 mi
3:00 PM21 °FSnow flurries. Mostly cloudy.13 mph80%29.66 "Hg10 mi
2:00 PM23 °FSnow flurries. Overcast.13 mph80%29.65 "Hg8 mi
1:00 PM25 °FSnow flurries. Mostly cloudy.10 mph74%29.65 "Hg8 mi
12:00 PM27 °FSnow flurries. Mostly cloudy.8 mph74%29.65 "Hg10 mi
11:00 AM27 °FSnow flurries. Mostly cloudy.7 mph80%29.64 "Hg8 mi
10:00 AM27 °FLight mixture of precip. Mostly cloudy.8 mph80%29.63 "Hg10 mi
9:00 AM28 °FLight snow. More clouds than sun.6 mph93%29.62 "Hg6 mi
8:00 AM27 °FLight snow. Mostly cloudy.17 mph93%29.63 "Hg2 mi
7:00 AM27 °FLight snow. Mostly cloudy.18 mph93%29.62 "Hg2 mi
6:00 AM27 °FLight snow. Mostly cloudy.22 mph93%29.62 "Hg2 mi
5:00 AM27 °FLight snow. Low clouds.21 mph93%29.61 "Hg8 mi
4:00 AM28 °FLight snow. Low clouds.17 mph86%29.61 "Hg10 mi
3:00 AM27 °FLight snow. Low clouds.21 mph93%29.62 "Hg2 mi
2:00 AM27 °FLight snow. Low clouds.20 mph93%29.63 "Hg3 mi
1:00 AM27 °FLight snow. Low clouds.20 mph93%29.65 "Hg12 mi
12:00 AM27 °FLight snow. Low clouds.21 mph86%29.65 "Hg12 mi
11:00 PM
Mon, Feb 8
27 °FLight snow. Low clouds.18 mph86%29.66 "Hg12 mi
10:00 PM27 °FLight snow. Low clouds.18 mph93%29.67 "Hg15 mi
9:00 PM28 °FLight snow. Low clouds.20 mph86%29.68 "Hg15 mi
Weather by CustomWeather, © 2016

See weather overviewHow to use our weather pages